Location: Newark
(35.8833°N, 14.5000°E)
Time: 19:18:45
(UTC+00:00)

Altair - Pass Details

Date: 24 November 2019
Orbit: 1502 x 1682 km, 47.2° (Epoch: 12 December)

Event Time Altitude Azimuth Distance (km) Brightness Sun altitude
Rises 23:24:24 0° 223° (SW) 4,705 - -72.9°
Reaches altitude 10° 23:27:30 10° 221° (SW) 3,702 - -72.6°
Maximum altitude 23:36:42 70° 140° (SE) 1,589 - -71.5°
Drops below altitude 10° 23:45:47 10° 59° (ENE) 3,653 - -70.3°
Exits shadow 23:48:16 - 57° (ENE) 4,461 10.2 -70.0°
Sets 23:48:49 0° 57° (ENE) 4,639 10.3 -69.9°
